Total_Precipitation_Accumulation
1.71 1.74 1.72 1.78 1.69 1.51 1.44 1.43 1.46 1.26 1.11 0.90 0.64 0.47 0.46 0.42 0.45 0.40 0.36 0.33 0.28 0.24 0.21 0.17 0.13 0.12 0.13 0.16 0.18 0.19 0.23 0.32 0.64 0.94 0.81 0.67 0.62 0.68
1.48 1.51 1.56 1.62 1.69 1.66 1.61 1.52 1.44 1.32 1.20 1.02 0.77 0.53 0.52 0.52 0.50 0.42 0.43 0.46 0.37 0.29 0.24 0.20 0.16 0.12 0.11 0.10 0.10 0.08 0.08 0.11 0.31 0.79 0.90 0.78 0.77 0.87
1.31 1.32 1.43 1.47 1.64 1.70 1.65 1.56 1.50 1.40 1.23 1.11 0.87 0.63 0.55 0.55 0.56 0.51 0.47 0.45 0.41 0.34 0.29 0.26 0.22 0.19 0.17 0.13 0.11 0.09 0.07 0.06 0.08 0.22 0.40 0.49 0.66 0.88
1.13 1.13 1.23 1.32 1.43 1.56 1.64 1.55 1.50 1.43 1.38 1.30 1.07 0.81 0.70 0.65 0.58 0.53 0.48 0.47 0.48 0.46 0.39 0.34 0.32 0.30 0.27 0.23 0.19 0.14 0.11 0.08 0.07 0.08 0.17 0.28 0.37 0.50
0.96 0.97 1.02 1.08 1.17 1.30 1.43 1.52 1.49 1.42 1.47 1.44 1.23 0.96 0.76 0.67 0.64 0.57 0.50 0.55 0.52 0.50 0.47 0.41 0.37 0.34 0.33 0.32 0.31 0.28 0.21 0.16 0.14 0.13 0.13 0.16 0.22 0.26
0.75 0.75 0.80 0.82 0.87 1.00 1.15 1.29 1.43 1.50 1.54 1.54 1.40 1.12 0.88 0.74 0.68 0.69 0.70 0.63 0.61 0.55 0.55 0.53 0.52 0.49 0.44 0.40 0.36 0.33 0.30 0.28 0.24 0.21 0.20 0.18 0.16 0.17
0.76 0.67 0.62 0.63 0.68 0.77 0.88 1.11 1.27 1.41 1.51 1.53 1.45 1.28 1.07 0.92 0.79 0.73 0.75 0.80 0.82 0.74 0.71 0.65 0.60 0.53 0.46 0.37 0.31 0.27 0.24 0.22 0.20 0.18 0.16 0.14 0.13 0.13
0.73 0.73 0.71 0.67 0.57 0.51 0.54 0.69 0.91 1.12 1.27 1.35 1.37 1.26 1.09 0.98 0.93 0.87 0.77 0.76 0.84 0.82 0.82 0.87 0.76 0.66 0.59 0.48 0.41 0.33 0.27 0.23 0.22 0.21 0.19 0.20 0.19 0.17
0.69 0.69 0.74 0.74 0.77 0.65 0.56 0.53 0.58 0.74 0.94 1.09 1.13 1.10 1.13 1.04 0.90 0.80 0.72 0.68 0.67 0.66 0.69 0.79 0.77 0.69 0.61 0.57 0.55 0.47 0.40 0.34 0.31 0.28 0.25 0.22 0.20 0.18
0.74 0.74 0.77 0.80 0.79 0.89 0.85 0.77 0.72 0.73 0.83 0.73 0.78 1.00 1.05 1.01 0.94 0.88 0.84 0.75 0.65 0.57 0.54 0.63 0.65 0.63 0.54 0.48 0.47 0.41 0.36 0.31 0.29 0.27 0.27 0.26 0.26 0.25
0.74 0.72 0.77 0.76 0.95 1.00 0.90 0.89 0.84 0.80 0.96 0.95 0.90 0.88 0.87 0.83 0.82 0.84 0.86 0.80 0.74 0.64 0.53 0.49 0.52 0.56 0.55 0.48 0.44 0.41 0.35 0.31 0.28 0.27 0.27 0.28 0.28 0.25
0.80 0.74 0.91 0.86 0.87 0.80 0.70 0.86 0.88 0.79 0.73 0.72 0.72 0.72 0.67 0.66 0.68 0.70 0.77 0.76 0.70 0.69 0.58 0.50 0.49 0.50 0.50 0.46 0.40 0.38 0.36 0.35 0.32 0.30 0.30 0.30 0.28 0.24
0.84 0.83 0.79 0.85 0.68 0.64 0.65 0.72 0.85 0.82 0.77 0.79 0.77 0.69 0.60 0.56 0.54 0.55 0.62 0.63 0.64 0.65 0.53 0.43 0.44 0.43 0.38 0.35 0.33 0.30 0.27 0.26 0.24 0.23 0.22 0.23 0.23 0.21
0.77 0.68 0.64 0.66 0.50 0.47 0.47 0.57 0.68 0.68 0.65 0.72 0.73 0.67 0.56 0.50 0.47 0.45 0.47 0.49 0.48 0.49 0.46 0.39 0.39 0.38 0.33 0.26 0.25 0.23 0.21 0.19 0.19 0.18 0.16 0.17 0.17 0.19
0.57 0.57 0.49 0.43 0.39 0.34 0.37 0.46 0.49 0.58 0.66 0.71 0.65 0.57 0.52 0.50 0.48 0.47 0.42 0.39 0.37 0.35 0.33 0.32 0.36 0.39 0.36 0.28 0.22 0.21 0.19 0.17 0.15 0.16 0.17 0.15 0.13 0.13
0.36 0.30 0.29 0.30 0.34 0.35 0.35 0.36 0.41 0.56 0.70 0.70 0.63 0.56 0.56 0.55 0.54 0.52 0.50 0.46 0.42 0.41 0.37 0.34 0.36 0.39 0.39 0.36 0.30 0.26 0.24 0.22 0.20 0.20 0.20 0.19 0.17 0.14
0.50 0.40 0.31 0.29 0.31 0.34 0.36 0.41 0.52 0.60 0.67 0.60 0.57 0.52 0.51 0.55 0.55 0.54 0.54 0.52 0.48 0.45 0.47 0.48 0.47 0.44 0.43 0.42 0.43 0.40 0.38 0.36 0.33 0.31 0.27 0.22 0.19 0.19
0.49 0.49 0.47 0.47 0.47 0.45 0.42 0.39 0.41 0.47 0.53 0.57 0.56 0.51 0.46 0.47 0.47 0.47 0.48 0.47 0.46 0.45 0.42 0.44 0.48 0.51 0.49 0.46 0.40 0.38 0.43 0.46 0.45 0.41 0.34 0.26 0.22 0.24
0.41 0.43 0.44 0.44 0.43 0.40 0.37 0.33 0.30 0.31 0.37 0.45 0.52 0.55 0.53 0.51 0.48 0.44 0.40 0.38 0.36 0.35 0.34 0.32 0.34 0.37 0.41 0.41 0.41 0.34 0.33 0.38 0.39 0.35 0.33 0.29 0.25 0.27
0.26 0.30 0.30 0.29 0.28 0.28 0.25 0.22 0.20 0.22 0.24 0.26 0.33 0.42 0.52 0.60 0.60 0.53 0.48 0.44 0.40 0.36 0.35 0.31 0.26 0.24 0.26 0.27 0.27 0.27 0.27 0.29 0.30 0.28 0.25 0.24 0.22 0.22
0.10 0.12 0.13 0.13 0.15 0.15 0.14 0.14 0.14 0.16 0.18 0.19 0.21 0.23 0.30 0.40 0.50 0.55 0.56 0.59 0.56 0.52 0.49 0.44 0.37 0.36 0.29 0.26 0.24 0.19 0.19 0.20 0.19 0.16 0.15 0.16 0.16 0.16
0.04 0.05 0.06 0.06 0.07 0.08 0.07 0.07 0.07 0.09 0.11 0.12 0.13 0.15 0.18 0.21 0.29 0.37 0.41 0.43 0.46 0.49 0.52 0.53 0.51 0.49 0.42 0.37 0.31 0.24 0.20 0.20 0.22 0.22 0.18 0.16 0.14 0.14
0.03 0.04 0.04 0.05 0.05 0.07 0.11 0.13 0.09 0.07 0.08 0.10 0.11 0.11 0.11 0.13 0.16 0.21 0.26 0.29 0.33 0.36 0.39 0.41 0.40 0.38 0.37 0.36 0.35 0.34 0.29 0.24 0.23 0.23 0.23 0.28 0.26 0.19